Regional Weather Roundup
Issued by NWS

Home | Current Version | Previous Version | Text Only | Print | Product List | Glossary Off
Versions: 1 2 3 4 5 6 7 8 9 10 11 12 13 14 15 16 17 18 19 20 21 22 23 24 25 26 27 28 29 30 31 32 33 34 35 36 37 38 39 40 41 42 43 44 45 46 47 48 49 50

000
ASUS43 KTOP 170259
RWRKS

WEATHER ROUNDUP FOR KANSAS
NATIONAL WEATHER SERVICE GOODLAND KS
900 PM CST TUE JAN 16 2018

NOTE:  "FAIR" INDICATES FEW OR NO CLOUDS BELOW 12,000 FEET WITH NO
SIGNIFICANT WEATHER AND/OR OBSTRUCTIONS TO VISIBILITY.

KSZ001>006-013>018-027>032-041>047-170400-
NORTHWEST KANSAS

CITY           SKY/WX    TMP DP  RH WIND       PRES   REMARKS
GOODLAND       CLEAR     11  -2  56 S14       30.41F WCI  -5
HAYS           CLOUDY     4  -1  80 S5        30.61F
HILL CITY      CLOUDY     7  -1  70 SW3       30.56F
RUSSELL        CLOUDY     2  -1  88 S6        30.61F
$$

KSZ061>065-074>080-084>089-170400-
SOUTHWEST KANSAS

CITY           SKY/WX    TMP DP  RH WIND       PRES   REMARKS
DODGE CITY     CLOUDY     4  -5  66 SE7       30.56F
$$

KSZ066>073-081>083-090>101-170400-
SOUTHEAST KANSAS

CITY           SKY/WX    TMP DP  RH WIND       PRES   REMARKS
CHANUTE        CLOUDY     6   0  76 CALM      30.73S
COFFEYVILLE    CLOUDY     5   2  87 CALM      30.76F
HUTCHINSON     CLOUDY     3  -1  83 CALM      30.67S
MEDICINE LODGE   N/A      9   1  70 CALM      30.67F
PARSONS        CLOUDY     1  -3  83 CALM      30.75F
WICHITA INTL   CLOUDY     7   3  84 SW3       30.70S
WICHITA JABRA  CLOUDY     8   3  80 CALM      30.69S
WICHITA MCCONL CLOUDY    11   4  74 CALM      30.69S
$$

KSZ007>012-019>026-033>040-048>060-102>105-170400-
NORTHEAST KANSAS

CITY           SKY/WX    TMP DP  RH WIND       PRES   REMARKS
CONCORDIA      CLOUDY     8   2  76 CALM      30.65F
EMPORIA        CLOUDY     4   0  83 W3        30.70S
LAWRENCE       CLOUDY    -2  -5  87 CALM      30.73F
MANHATTAN      CLOUDY     3  -2  79 CALM      30.71S
OLATHE IND     CLOUDY     2  -2  83 NW3       30.71S
OLATHE EXE     CLOUDY     6   0  76 N5        30.70S
SALINA         CLOUDY     7   2  80 SE5       30.69F
TOPEKA BILLARD CLOUDY     4   0  83 CALM      30.72F
TOPEKA FORBES  CLOUDY     2  -3  80 CALM      30.70F
$$




USA.gov is the U.S. government's official web portal to all federal, state and local government web resources and services.